Back to catalog

THOR ABLESTAR DEB

AliveLEO
NORAD 210·DEBRIS·🇺🇸 United States

Launched Jun 29, 1961 from Cape Canaveral Space Force Station

Loading…

Next Passes (next 24 hours)

TLE

FreshSource: Space-Track

Epoch: Sep 5, 2026, 11:34 UTC

1 00210U 61015BE  26248.48239641  .00000255  00000-0  27175-3 0  9992
2 00210  66.4570 167.3268 0053639 263.6820  95.8144 13.89153453276557

Track THOR ABLESTAR DEB in real time with AllMySat

Download on the App Store